Total_Precipitation_Accumulation
2.12 2.27 2.28 1.60 1.29 1.16 1.15 1.12 1.12 1.08 1.06 1.12 1.23 1.32 1.24 1.29 1.41 1.45 1.57 1.80 1.86 1.98 2.29 2.46 2.52 2.38 2.10 1.92 1.83 1.63 1.38 1.39 1.46 1.48 1.48 1.53 1.59 1.85 2.27 2.14 1.98 1.45 1.37
1.61 1.80 1.91 1.44 1.10 1.04 1.01 1.02 1.01 0.99 0.98 0.96 1.08 1.26 1.33 1.45 1.57 1.57 1.69 1.90 2.08 2.35 2.40 2.37 2.28 2.02 1.89 1.69 1.56 1.47 1.38 1.46 1.57 1.60 1.51 1.37 1.64 2.01 2.29 2.15 2.15 1.43 1.35
1.17 1.30 1.27 1.24 1.02 0.90 0.92 0.95 0.95 0.95 0.91 0.84 0.95 1.18 1.36 1.59 1.80 1.82 1.87 2.09 2.40 2.43 2.33 2.26 1.96 1.69 1.57 1.39 1.34 1.34 1.38 1.51 1.61 1.83 1.87 1.37 1.30 1.99 2.09 1.96 1.61 1.20 1.20
0.93 0.95 0.87 0.94 0.93 0.86 0.85 0.84 0.83 0.85 0.85 0.85 0.96 1.15 1.32 1.47 1.70 1.84 2.00 2.22 2.41 2.29 2.22 1.94 1.65 1.46 1.32 1.16 1.15 1.19 1.29 1.50 1.79 2.17 2.19 1.66 1.07 1.55 1.83 1.66 1.38 1.15 1.09
0.85 0.78 0.90 0.92 0.86 0.83 0.79 0.82 0.83 0.84 0.83 0.88 0.96 1.11 1.27 1.46 1.69 1.83 1.87 2.08 2.12 1.98 1.89 1.71 1.52 1.27 1.11 1.02 1.01 1.10 1.28 1.58 1.81 2.04 1.88 1.77 1.56 1.62 1.66 1.56 1.41 1.32 1.21
0.81 0.79 0.85 0.89 0.84 0.85 0.79 0.75 0.80 0.81 0.86 0.91 1.05 1.19 1.29 1.52 1.68 1.70 1.76 2.02 1.99 1.85 1.74 1.61 1.38 1.12 0.97 0.89 0.94 1.02 1.23 1.58 1.59 1.36 1.38 1.50 1.41 1.52 1.53 1.62 1.53 1.37 1.26
0.97 0.98 0.91 0.95 0.93 0.87 0.77 0.70 0.75 0.79 0.87 0.92 1.07 1.22 1.29 1.42 1.50 1.58 1.76 1.92 1.86 1.72 1.56 1.43 1.26 1.05 0.99 0.99 0.98 0.98 1.26 1.53 1.36 1.19 1.27 1.62 1.45 1.23 1.49 1.73 1.69 1.47 1.27
1.00 1.05 1.01 1.08 1.04 0.98 0.83 0.74 0.80 0.88 0.95 1.00 1.07 1.13 1.19 1.25 1.33 1.50 1.76 1.89 1.76 1.50 1.37 1.34 1.23 1.08 1.03 1.06 0.98 1.01 1.24 1.32 1.07 1.12 1.08 1.25 1.11 1.13 1.44 1.68 1.68 1.54 1.38
1.17 1.13 1.11 1.11 0.99 1.03 1.00 0.90 0.94 1.07 1.10 1.08 1.08 1.09 1.12 1.20 1.31 1.51 1.81 1.90 1.70 1.41 1.30 1.25 1.22 1.09 0.99 1.03 1.07 1.14 1.34 1.47 1.30 1.35 1.02 1.16 1.08 1.27 1.57 1.72 1.72 1.64 1.59
1.59 1.36 1.23 1.28 1.25 1.12 1.09 1.07 1.18 1.25 1.26 1.23 1.17 1.23 1.31 1.40 1.45 1.67 1.83 1.83 1.63 1.41 1.32 1.25 1.24 1.10 1.04 1.05 1.10 1.31 1.59 1.45 1.10 1.20 1.25 1.10 1.17 1.53 1.90 1.87 1.87 1.89 1.86
1.94 1.70 1.46 1.34 1.29 1.21 1.17 1.25 1.56 1.56 1.48 1.46 1.50 1.54 1.63 1.88 1.99 2.18 2.00 1.94 1.72 1.58 1.58 1.51 1.51 1.39 1.25 1.16 1.31 1.55 1.53 1.31 1.36 1.46 1.41 1.18 1.41 1.84 2.17 2.15 2.11 2.09 2.08
2.12 1.78 1.71 1.59 1.43 1.33 1.17 1.33 1.79 1.65 1.60 1.75 1.92 1.85 2.08 2.48 2.76 2.40 2.35 2.34 2.27 2.22 2.11 2.13 2.19 1.82 1.49 1.57 2.08 2.11 1.47 1.42 1.60 1.64 1.58 1.52 1.82 2.28 2.53 2.50 2.48 2.29 2.24
2.30 1.96 1.84 1.74 1.65 1.65 1.75 1.57 1.73 1.85 1.97 2.06 2.10 2.18 2.39 2.44 2.62 2.71 2.75 2.77 2.81 2.63 2.49 2.71 2.66 2.09 2.11 2.52 2.62 2.31 1.78 1.75 1.90 1.82 1.92 1.99 2.06 2.60 3.07 2.97 2.90 2.65 2.45
2.55 2.24 2.01 1.88 1.88 1.96 1.91 1.87 1.82 1.92 1.99 2.17 2.36 2.36 2.63 3.00 3.10 3.18 3.16 2.98 3.07 3.06 3.26 3.23 3.27 2.82 2.82 2.60 2.49 2.44 2.25 2.29 2.16 2.37 2.78 2.49 2.25 2.62 3.37 3.48 3.37 3.07 2.67
2.71 2.38 2.32 2.07 2.00 2.05 2.23 2.36 2.10 2.34 2.37 2.44 2.68 2.83 2.95 3.26 3.32 3.35 3.29 3.28 2.97 3.04 3.27 3.63 3.50 3.70 3.67 3.24 2.77 2.61 2.59 2.61 2.55 2.65 2.95 2.97 2.77 2.86 3.67 4.16 4.03 3.69 3.22
2.69 2.51 2.45 2.31 2.34 2.41 2.46 2.58 2.70 2.86 2.97 2.90 2.94 3.06 3.13 3.33 3.65 3.67 3.59 3.52 3.15 3.04 3.36 3.70 3.70 4.23 4.11 3.90 3.35 2.99 2.79 2.75 2.71 2.80 3.14 3.34 3.24 3.20 3.68 4.28 4.53 4.46 4.00
2.48 2.56 2.69 2.78 2.98 3.07 3.10 3.09 3.07 3.21 3.25 3.38 3.69 3.76 3.81 3.71 3.85 3.73 3.68 3.51 3.43 3.36 3.53 3.63 3.76 4.19 3.95 3.89 3.75 3.40 3.18 2.95 2.77 2.99 3.37 3.73 3.35 3.26 3.64 4.16 4.60 4.60 4.42
2.50 2.61 2.84 2.89 3.30 3.49 3.59 3.70 3.63 3.61 3.63 3.90 4.12 4.30 4.25 4.05 3.87 3.94 3.68 3.47 3.56 3.51 3.71 4.04 4.05 4.15 4.28 4.20 3.97 3.65 3.47 3.37 2.92 2.97 3.12 3.31 3.56 3.07 3.50 4.18 4.46 4.23 4.31
2.87 3.14 3.47 3.53 3.51 3.62 3.84 4.02 3.81 3.83 3.83 3.85 3.95 4.21 4.12 3.80 3.65 4.01 3.84 3.82 3.74 3.95 3.86 3.54 4.15 4.36 4.36 4.26 3.67 3.63 3.24 3.21 3.14 2.90 3.01 3.07 3.28 3.24 3.32 3.46 4.06 3.89 4.13
3.24 3.64 3.87 3.88 4.12 4.44 4.65 4.57 4.34 4.00 3.80 3.69 3.75 3.90 3.81 3.74 3.60 3.93 3.72 3.68 3.85 4.24 4.32 4.18 4.45 4.37 4.22 4.28 3.58 3.39 3.09 2.80 2.80 2.78 2.59 2.83 2.89 2.62 2.86 3.13 3.56 3.03 3.30
3.31 3.58 3.88 4.25 4.63 4.76 4.60 4.54 4.52 4.31 4.05 3.68 3.53 3.62 3.65 3.41 3.44 3.86 3.55 3.94 3.98 4.17 4.31 4.25 4.47 4.39 4.17 4.28 4.24 3.65 3.02 2.61 2.53 2.35 2.36 2.59 2.50 2.55 2.90 3.39 3.67 3.54 3.13
3.06 3.37 3.79 4.25 4.58 4.50 4.63 4.86 4.85 4.66 4.03 3.70 3.59 3.58 3.44 3.26 3.21 3.35 3.89 3.86 3.97 4.19 4.24 4.17 4.23 4.03 3.75 4.10 4.41 4.24 3.51 3.04 2.58 2.11 2.35 2.37 2.50 2.79 2.82 2.88 3.33 3.70 3.50
3.03 3.51 3.85 4.18 4.32 4.34 4.57 4.73 4.47 4.28 3.82 3.69 3.70 3.59 3.37 3.29 3.27 3.41 3.68 3.77 3.85 3.74 3.98 4.15 3.96 3.91 3.80 3.83 4.07 4.32 3.86 3.23 2.71 2.37 2.23 2.29 2.65 2.89 2.75 2.70 2.69 2.96 3.04
3.03 3.63 4.06 4.09 4.16 4.02 4.16 4.32 4.19 3.85 3.61 3.50 3.49 3.27 3.13 3.03 3.02 3.14 3.31 3.51 3.66 3.57 3.74 3.61 3.67 3.85 3.88 3.69 3.81 3.75 3.67 3.46 3.28 2.83 2.42 2.30 2.53 2.63 2.61 2.39 2.40 2.73 2.90
2.75 3.17 3.60 3.95 4.01 3.82 3.77 3.85 4.01 3.84 3.55 3.32 3.21 3.12 3.05 3.01 2.81 2.79 3.01 3.26 3.43 3.31 3.28 3.47 3.79 3.73 3.63 3.59 3.72 3.76 3.93 3.76 3.42 3.26 2.88 2.61 2.46 2.21 2.28 2.31 2.29 2.40 2.64
2.56 2.92 3.23 3.46 3.44 3.38 3.34 3.38 3.51 3.57 3.52 3.28 3.09 3.13 3.08 2.92 2.75 2.67 2.78 3.13 3.23 3.16 3.13 3.23 3.31 3.36 3.40 3.58 3.58 3.50 3.74 3.75 3.58 3.61 3.21 2.84 2.55 2.08 2.01 2.08 2.18 2.31 2.45